Tracking 19846 objects as of 20-Sep-2019
HD Live streaming from Space Station
objects crossing your sky now

FENGYUN 1C DEB

Track FENGYUN 1C DEB now!
10-day predictions


NORAD ID: 33674
Int'l Code: 1999-025DFK
Perigee: 846.4 km
Apogee: 1,179.0 km
Inclination: 98.6 °
Period: 105.2 minutes
Semi major axis: 7383 km
RCS: 0.0036 m2 (small)
Launch date: May 10, 1999
Source: People's Republic of China (PRC)
Launch site: Taiyaun Space Center, China (TSC)

Note: This is SATELLITE DEBRIS
aabbcc
Your satellite tracking list
Your tracking list is empty




NASA's NSSDC Master Catalog

Two Line Element Set (TLE):
1 33674U 99025DFK 19259.48698427  .00000297  00000-0  32785-3 0  9998
2 33674  98.6140 151.0985 0225220 195.5252 163.8910 13.68332786572216
Source of the keplerian elements: AFSPC